[[{"header":{"parameterUnit":"m.s-1","parameterCategory":1,"la1":30.2991,"la2":30.254,"lo1":-89.0895,"lo2":-89.0444,"dy":0.0017,"dx":0.0017,"nx":28,"ny":28,"refTime":"2025-05-20T21:00:00:Z","depth":0,"parameterNumber":2,"parameterNumberName":"U-component_of_WINDS"},"data":[0,0,0,0,0,0,0,0,0,0,0,0,0,0,0,0,0,0,0,0,0,0,0,0,0,0,0,0,0,0,0,0,0,0,0,0,0,0,0,0,0,0,0,0,0,0,0,0,0,0,0,0,0,0,0,0,0,0,-0.9599,-0.9599,0,-0.9645,-0.9646,-0.9646,-0.9697,-0.9698,-0.9698,-0.9699,-0.9746,-0.9746,-0.9747,0,0,0,0,0,0,0,0,0,0,0,0,0,-0.9554,-0.9555,-0.9599,-0.9599,-0.96,-0.9645,-0.9646,-0.9646,-0.9697,-0.9698,-0.9699,-0.9699,-0.9746,-0.9746,-0.9747,0,0,0,0,0,0,0,0,0,0,0,0,0,-0.9584,-0.9555,-0.9599,-0.9631,-0.9634,-0.9645,-0.9646,-0.9646,-0.9697,-0.9698,-0.9699,-0.97,-0.9745,-0.9746,-0.9747,-0.973,0,0,-0.975,-0.975,0,0,0,0,0,0,0,0,-0.9583,-0.9586,-0.9625,-0.9629,-0.9632,-0.9666,-0.9647,-0.9674,-0.9696,-0.9673,-0.9699,-0.97,-0.9718,-0.9722,-0.9728,-0.9732,-0.9734,-0.975,-0.975,-0.9751,-0.9751,0,0,0,0,0,0,0,-0.958,-0.9584,-0.9617,-0.9626,-0.963,-0.9643,-0.9648,-0.9653,-0.9689,-0.9675,-0.9679,-0.9683,-0.9721,-0.9727,-0.9729,-0.9735,-0.975,-0.975,-0.9751,-0.9751,-0.9728,-0.9727,0,0,0,0,0,0,-0.9574,-0.9582,-0.9616,-0.9619,-0.961,-0.9643,-0.9649,-0.9654,-0.9689,-0.9695,-0.9682,-0.9686,-0.9725,-0.9728,-0.9731,-0.9713,-0.9751,-0.9751,-0.9752,-0.9729,-0.9727,-0.9726,0,0,0,0,0,0,-0.9572,-0.9576,-0.9614,-0.9601,-0.9607,-0.9642,-0.9648,-0.9655,-0.9661,-0.9695,-0.9701,-0.9682,-0.9726,-0.973,-0.973,-0.9715,-0.9752,-0.9752,-0.973,-0.9728,-0.9727,-0.9676,0,0,0,0,0,0,-0.9571,-0.9575,-0.9569,-0.9601,-0.9608,-0.9612,-0.9647,-0.9655,-0.9662,-0.9667,-0.9696,-0.9702,-0.9727,-0.9728,-0.9731,-0.9717,-0.9753,-0.9731,-0.9729,-0.9727,-0.9679,-0.9673,-0.9668,0,0,0,0,0,-0.9569,-0.9553,-0.9569,-0.9572,-0.9601,-0.9611,-0.9615,-0.9644,-0.9661,-0.9655,-0.9677,-0.9701,-0.9717,-0.9728,-0.9731,-0.9717,-0.9733,-0.973,-0.9727,-0.9682,-0.9674,-0.9668,0,0,0,0,0,0,-0.9519,-0.9558,-0.9575,-0.9569,-0.9586,-0.9619,-0.9612,-0.9635,-0.9647,-0.9651,-0.9686,-0.9693,-0.9688,-0.9703,-0.9715,-0.9703,-0.9728,-0.9726,-0.9693,-0.9686,-0.968,-0.9676,-0.9754,0,0,0,0,0,-0.9507,-0.9512,-0.9546,-0.9537,-0.9545,-0.9577,-0.9583,-0.9604,-0.9623,-0.963,-0.9652,-0.9669,-0.9678,-0.9683,-0.9693,-0.9683,-0.9689,-0.9675,-0.9669,-0.9664,-0.9661,-0.9656,-0.965,-0.9718,-0.9718,-0.9718,0,0,-0.9482,-0.9504,-0.9505,-0.9528,-0.9543,-0.9547,-0.9583,-0.9586,-0.9589,-0.963,-0.9631,-0.9648,-0.967,-0.9664,-0.9663,-0.9677,-0.9644,-0.9661,-0.9656,-0.9657,-0.9653,-0.9646,-0.9641,-0.9716,-0.9716,-0.9717,0,0,-0.9439,-0.9457,-0.9451,-0.9466,-0.949,-0.9511,-0.951,-0.954,-0.9552,-0.9554,-0.9585,-0.959,-0.9605,-0.9619,-0.9628,-0.9591,-0.9613,-0.9593,-0.9562,-0.9557,-0.9551,-0.9547,-0.9532,-0.9527,-0.9591,-0.9591,-0.9591,0,-0.9405,-0.9413,-0.9445,-0.9446,-0.9455,-0.9493,-0.9488,-0.9501,-0.9526,-0.9531,-0.9546,-0.9565,-0.9583,-0.9581,-0.9572,-0.9578,-0.9577,-0.9589,-0.9549,-0.9545,-0.9541,-0.9528,-0.9523,-0.9588,-0.9588,-0.9589,-0.9589,0,-0.937,-0.9375,-0.9367,-0.9391,-0.9399,-0.9396,-0.9428,-0.9433,-0.9453,-0.9473,-0.9475,-0.9497,-0.9512,-0.9514,-0.9534,-0.9514,-0.9522,-0.9543,-0.9569,-0.9532,-0.952,-0.9515,-0.9584,-0.9585,-0.9586,-0.9586,0,0,-0.9295,-0.9337,-0.9333,-0.9344,-0.9373,-0.9377,-0.9377,-0.9392,-0.9394,-0.9411,-0.9411,-0.9423,-0.9442,-0.9453,-0.9475,-0.947,-0.9439,-0.9492,-0.9493,-0.948,-0.9417,-0.94,-0.9394,-0.9455,-0.9454,-0.9453,-0.9415,0,-0.9256,-0.9257,-0.9286,-0.9279,-0.9283,-0.932,-0.932,-0.9337,-0.9356,-0.9363,-0.9384,-0.9391,-0.9417,-0.9424,-0.9421,-0.9443,-0.9426,-0.9446,-0.9454,-0.9454,-0.9445,-0.9388,-0.937,-0.9333,-0.9411,-0.941,-0.941,0,-0.921,-0.9224,-0.9217,-0.9246,-0.9249,-0.9248,-0.9264,-0.927,-0.9291,-0.9305,-0.9316,-0.9342,-0.9343,-0.9369,-0.9371,-0.9384,-0.939,-0.9401,-0.94,-0.9401,-0.9428,-0.9385,-0.9322,-0.9316,-0.9403,-0.9403,-0.9404,0,-0.9154,-0.9171,-0.9169,-0.9178,-0.9212,-0.921,-0.9224,-0.9246,-0.9253,-0.9268,-0.9272,-0.9287,-0.9294,-0.9304,-0.9333,-0.9349,-0.9331,-0.936,-0.9343,-0.9342,-0.9336,-0.9335,-0.927,-0.9342,-0.9342,-0.9342,-0.9342,0,-0.9107,-0.9101,-0.9145,-0.9143,-0.9137,-0.9172,-0.9165,-0.9183,-0.9202,-0.9205,-0.9238,-0.924,-0.9278,-0.9284,-0.9307,-0.9305,-0.9308,-0.9319,-0.9325,-0.9315,-0.9313,-0.9318,-0.932,-0.934,-0.9341,-0.9341,-0.9341,0,-0.9043,-0.9072,-0.9072,-0.9105,-0.9113,-0.9107,-0.9135,-0.9135,-0.9156,-0.9159,-0.9162,-0.9195,-0.9204,-0.9234,-0.925,-0.9266,-0.9256,-0.9268,-0.9248,-0.9252,-0.9232,-0.9233,-0.9166,-0.9159,-0.9236,-0.9235,-0.9235,0,-0.901,-0.9006,-0.9038,-0.9042,-0.9055,-0.9061,-0.9068,-0.9103,-0.9109,-0.9132,-0.9129,-0.9141,-0.9151,-0.9164,-0.919,-0.9202,-0.9214,-0.919,-0.9216,-0.9206,-0.9212,-0.9211,-0.921,-0.9184,-0.9183,-0.9182,-0.9181,0,-0.8947,-0.8962,-0.8971,-0.8986,-0.8994,-0.9006,-0.9021,-0.9023,-0.9061,-0.9066,-0.9076,-0.9084,-0.9101,-0.9111,-0.9128,-0.9143,-0.9168,-0.9173,-0.9169,-0.9158,-0.9146,-0.9151,-0.9231,-0.9174,-0.9175,-0.9175,-0.9176,-0.9176,-0.8897,-0.8895,-0.8917,-0.8926,-0.8941,-0.8954,-0.8956,-0.8978,-0.8986,-0.9002,-0.9022,-0.9028,-0.905,-0.9075,-0.9088,-0.9094,-0.9107,-0.9103,-0.9101,-0.9099,-0.9093,-0.9147,-0.9097,-0.9097,-0.9098,-0.9098,-0.9098,0,-0.8835,-0.8851,-0.886,-0.8879,-0.8886,-0.891,-0.8928,-0.8932,-0.8938,-0.8956,-0.8966,-0.8976,-0.8987,-0.9014,-0.9027,-0.9026,-0.9038,-0.9029,-0.9028,-0.9031,-0.9081,-0.9082,-0.9019,-0.9019,-0.9019,-0.9019,-0.9019,-0.9019,-0.8804,-0.8801,-0.8819,-0.8824,-0.8841,-0.8847,-0.8855,-0.8867,-0.8882,-0.8892,-0.8901,-0.8919,-0.894,-0.8955,-0.8966,-0.8974,-0.8976,-0.8963,-0.8974,-0.902,-0.9027,-0.9035,-0.9036,-0.8963,-0.8963,-0.8923,-0.8922,-0.8922]},{"header":{"parameterUnit":"m.s-1","parameterCategory":1,"la1":30.2991,"la2":30.254,"lo1":-89.0895,"lo2":-89.0444,"dy":0.0017,"dx":0.0017,"nx":28,"ny":28,"refTime":"2025-05-20T21:00:00:Z","depth":0,"parameterNumber":3,"parameterNumberName":"V-component_of_WINDS"},"data":[0,0,0,0,0,0,0,0,0,0,0,0,0,0,0,0,0,0,0,0,0,0,0,0,0,0,0,0,0,0,0,0,0,0,0,0,0,0,0,0,0,0,0,0,0,0,0,0,0,0,0,0,0,0,0,0,0,0,-0.8448,-0.8449,0,-0.8528,-0.8529,-0.853,-0.8587,-0.8587,-0.8588,-0.8588,-0.8669,-0.867,-0.8672,0,0,0,0,0,0,0,0,0,0,0,0,0,-0.8343,-0.8345,-0.8448,-0.8449,-0.845,-0.8528,-0.8529,-0.853,-0.8587,-0.8587,-0.8588,-0.8588,-0.8668,-0.867,-0.8672,0,0,0,0,0,0,0,0,0,0,0,0,0,-0.8402,-0.8345,-0.8447,-0.8487,-0.8492,-0.8528,-0.8529,-0.853,-0.8586,-0.8587,-0.8588,-0.8589,-0.8667,-0.867,-0.8672,-0.8674,0,0,-0.868,-0.8681,0,0,0,0,0,0,0,0,-0.8399,-0.8406,-0.848,-0.8485,-0.849,-0.8548,-0.8522,-0.8579,-0.8586,-0.855,-0.8588,-0.8589,-0.8628,-0.8634,-0.8647,-0.8678,-0.8682,-0.868,-0.8682,-0.8683,-0.8684,0,0,0,0,0,0,0,-0.8395,-0.8403,-0.8479,-0.8481,-0.8487,-0.8501,-0.851,-0.8533,-0.8584,-0.8554,-0.8558,-0.8567,-0.863,-0.8645,-0.8649,-0.8683,-0.868,-0.8683,-0.8684,-0.8685,-0.8721,-0.872,0,0,0,0,0,0,-0.8384,-0.8399,-0.8477,-0.8482,-0.8445,-0.8502,-0.8513,-0.8529,-0.8584,-0.8593,-0.8566,-0.8569,-0.864,-0.8646,-0.8653,-0.8659,-0.8683,-0.8686,-0.8687,-0.8722,-0.8721,-0.872,0,0,0,0,0,0,-0.8382,-0.8391,-0.8474,-0.8442,-0.8453,-0.8504,-0.8521,-0.853,-0.8544,-0.8594,-0.8603,-0.8571,-0.8641,-0.8649,-0.8669,-0.8663,-0.8687,-0.8689,-0.8722,-0.8721,-0.872,-0.8672,0,0,0,0,0,0,-0.8379,-0.839,-0.8391,-0.8441,-0.8455,-0.8488,-0.852,-0.8531,-0.8548,-0.8553,-0.8601,-0.8609,-0.8642,-0.8665,-0.8671,-0.8667,-0.8691,-0.8723,-0.8722,-0.8721,-0.8674,-0.8669,-0.8665,0,0,0,0,0,-0.8375,-0.8373,-0.8391,-0.84,-0.8457,-0.8488,-0.8496,-0.8534,-0.8548,-0.8549,-0.8582,-0.8608,-0.8663,-0.8666,-0.8674,-0.867,-0.8724,-0.8722,-0.8721,-0.8676,-0.867,-0.8665,0,0,0,0,0,0,-0.832,-0.8381,-0.84,-0.8415,-0.8446,-0.8498,-0.8501,-0.8526,-0.8553,-0.8556,-0.8602,-0.8612,-0.8628,-0.8651,-0.8654,-0.8676,-0.8696,-0.8696,-0.8659,-0.8654,-0.865,-0.8643,-0.8693,0,0,0,0,0,-0.8309,-0.833,-0.8382,-0.839,-0.8404,-0.845,-0.8464,-0.8491,-0.8525,-0.8538,-0.8572,-0.8603,-0.8628,-0.8642,-0.8668,-0.8678,-0.869,-0.8679,-0.8675,-0.8671,-0.867,-0.8678,-0.8674,-0.8716,-0.8716,-0.8716,0,0,-0.8288,-0.8324,-0.8333,-0.838,-0.8407,-0.8426,-0.846,-0.8479,-0.8494,-0.8541,-0.8562,-0.8588,-0.8626,-0.8641,-0.865,-0.8661,-0.8662,-0.8669,-0.8666,-0.8667,-0.8677,-0.8673,-0.8669,-0.8715,-0.8715,-0.8715,0,0,-0.8259,-0.8288,-0.8298,-0.8325,-0.8366,-0.8397,-0.8399,-0.8448,-0.8467,-0.8489,-0.8525,-0.8543,-0.8584,-0.861,-0.8628,-0.8611,-0.8636,-0.8618,-0.8594,-0.8602,-0.8598,-0.8596,-0.859,-0.8587,-0.8618,-0.8618,-0.8618,0,-0.8227,-0.8258,-0.83,-0.8318,-0.8337,-0.8381,-0.8392,-0.8416,-0.8463,-0.8475,-0.8488,-0.8541,-0.857,-0.8592,-0.8588,-0.8602,-0.8606,-0.8612,-0.8596,-0.8593,-0.8591,-0.8586,-0.8584,-0.8615,-0.8615,-0.8616,-0.8616,0,-0.8217,-0.8238,-0.8241,-0.8287,-0.8307,-0.832,-0.8365,-0.838,-0.8405,-0.8435,-0.8457,-0.8494,-0.8527,-0.8535,-0.8559,-0.8561,-0.8567,-0.8587,-0.8608,-0.8584,-0.858,-0.8578,-0.8612,-0.8612,-0.8613,-0.8614,0,0,-0.8153,-0.8223,-0.8223,-0.8245,-0.8294,-0.8311,-0.8328,-0.8362,-0.8374,-0.8405,-0.842,-0.8455,-0.8474,-0.8495,-0.8523,-0.853,-0.8514,-0.8549,-0.8551,-0.8541,-0.8518,-0.8502,-0.8499,-0.8532,-0.8532,-0.8531,-0.8515,0,-0.8131,-0.8163,-0.8202,-0.8221,-0.8241,-0.8285,-0.8299,-0.8331,-0.8359,-0.8381,-0.8412,-0.8436,-0.846,-0.8473,-0.8481,-0.8514,-0.851,-0.8516,-0.8545,-0.8546,-0.8534,-0.8497,-0.848,-0.8462,-0.8514,-0.8513,-0.8513,0,-0.811,-0.814,-0.816,-0.8209,-0.8219,-0.8231,-0.8266,-0.8286,-0.8324,-0.8344,-0.8368,-0.8399,-0.8419,-0.8439,-0.8467,-0.847,-0.8485,-0.8503,-0.8503,-0.8506,-0.8527,-0.8499,-0.8458,-0.8455,-0.8511,-0.8511,-0.8511,0,-0.8061,-0.8106,-0.8125,-0.8142,-0.82,-0.8207,-0.8231,-0.827,-0.8288,-0.8319,-0.8331,-0.8363,-0.838,-0.8405,-0.8443,-0.8454,-0.8467,-0.849,-0.8484,-0.8483,-0.8484,-0.8483,-0.8444,-0.8494,-0.8495,-0.8495,-0.8495,0,-0.8031,-0.8042,-0.8104,-0.8115,-0.8129,-0.8174,-0.8187,-0.8215,-0.8249,-0.8266,-0.8306,-0.8322,-0.8373,-0.8394,-0.8425,-0.8444,-0.8451,-0.8468,-0.8476,-0.8464,-0.8462,-0.8473,-0.8475,-0.8494,-0.8494,-0.8494,-0.8494,0,-0.7978,-0.802,-0.8043,-0.8097,-0.811,-0.8118,-0.8164,-0.8176,-0.8208,-0.823,-0.8237,-0.8286,-0.8314,-0.8356,-0.8396,-0.8417,-0.843,-0.8443,-0.8417,-0.8422,-0.8413,-0.8413,-0.838,-0.8378,-0.843,-0.8429,-0.8429,0,-0.7956,-0.7966,-0.8021,-0.8036,-0.8059,-0.8082,-0.8102,-0.8147,-0.8166,-0.821,-0.8217,-0.8249,-0.8276,-0.8318,-0.8357,-0.8388,-0.8402,-0.8389,-0.8407,-0.8395,-0.8402,-0.84,-0.8401,-0.8383,-0.8383,-0.8382,-0.8382,0,-0.7913,-0.7933,-0.796,-0.7994,-0.8016,-0.8045,-0.8075,-0.8085,-0.8138,-0.8156,-0.8186,-0.8207,-0.8249,-0.8279,-0.8316,-0.8341,-0.837,-0.8376,-0.8376,-0.8363,-0.8347,-0.8356,-0.8404,-0.8376,-0.8376,-0.8377,-0.8377,-0.8377,-0.7874,-0.7885,-0.7925,-0.7954,-0.7982,-0.801,-0.8025,-0.8059,-0.8085,-0.8122,-0.8148,-0.8176,-0.8215,-0.8268,-0.8291,-0.8314,-0.8326,-0.8326,-0.8326,-0.8325,-0.8321,-0.8345,-0.8321,-0.8321,-0.8321,-0.8322,-0.8322,0,-0.7832,-0.7861,-0.7887,-0.7929,-0.7951,-0.7978,-0.8014,-0.8031,-0.8055,-0.8089,-0.8116,-0.815,-0.818,-0.8222,-0.8256,-0.8266,-0.828,-0.8273,-0.8272,-0.8277,-0.8308,-0.8305,-0.8261,-0.8261,-0.8261,-0.8261,-0.8261,-0.8261,-0.7813,-0.7833,-0.7858,-0.7893,-0.7922,-0.795,-0.7968,-0.7994,-0.8022,-0.8059,-0.8084,-0.8112,-0.815,-0.8186,-0.8215,-0.8227,-0.8237,-0.8226,-0.8241,-0.8269,-0.8275,-0.828,-0.8277,-0.8228,-0.8228,-0.8209,-0.8208,-0.8208]}]]